Simultaneous Nadir Overpasses (SNOs) Predictions

Prediction of SNOs between AURA and NPP Satellite Orbit:

Table of predicted SNOs for the next 14.0 days since TLE Epoch: 11/17/2012
Index Date (AURA) Time (AURA) AURA Lat,Lon Date (NPP) Time (NPP) NPP Lat,Lon Distance(km) Time Diff (sec)
1 11/18/2012 19:59:29 74.66, 117.66 11/18/2012 19:58:16 74.96, 115.83 62.81 73
2 11/18/2012 20:47:02 -79.81, -52.80 11/18/2012 20:47:03 -79.81, -52.84 0.66 1
3 11/21/2012 12:14:22 79.69,-105.51 11/21/2012 12:13:17 79.70,-105.37 2.93 65
4 11/21/2012 13:03:44 -79.89, 63.66 11/21/2012 13:03:56 -79.90, 63.79 2.64 12
5 11/24/2012 04:31:15 79.61, 9.69 11/24/2012 04:30:16 79.60, 9.55 2.73 59
6 11/24/2012 05:20:35 -79.89, 179.44 11/24/2012 05:20:52 -79.90, 179.56 2.44 17
7 11/26/2012 20:48:10 79.66, 125.84 11/26/2012 20:47:09 79.67, 125.88 1.04 61
8 11/26/2012 21:37:33 -79.84, -65.19 11/26/2012 21:37:49 -79.84, -65.25 1.21 16
9 11/29/2012 13:05:14 79.66,-118.41 11/29/2012 13:04:05 79.67,-118.34 1.32 69




NCC Satellite Simultaneous Nadir Overpasses (SNOs) Prediction Service
